Weather History for Chandler, OK

Change the Weather History Date:

Wednesday, April 16, 2014

  Actual Average (KCUH) Record (KCUH)
Temperature  
Mean Temperature 58 °F -  
Max Temperature 69 °F 72 °F 93 °F (1955)
Min Temperature 46 °F 48 °F 32 °F (1953)
Degree Days  
Heating Degree Days 8    
Growing Degree Days 8 (Base 50)    
Moisture  
Dew Point 36 °F    
Average Humidity 46    
Maximum Humidity 62    
Minimum Humidity 31    
Precipitation  
Precipitation 0.00 in - - ()
Sea Level Pressure  
Sea Level Pressure 29.99 in    
Wind  
Wind Speed 13 mph (South)    
Max Wind Speed 25 mph    
Max Gust Speed 34 mph    
Visibility 10 miles    
Events      
Averages and records for this station are not official NWS values.
T = Trace of Precipitation, MM = Missing Value Source: NWS Daily Summary

Daily Weather History Graph

Daily Weather History Graph

Search for Another Location

Airport:

Trip Planner

Search our weather history database for the weather conditions in past years. The results will help you decide how hot, cold, wet, or windy it might be!

Date:

Astronomy

Apr. 16, 2014 Rise Set
Actual Time 6:53 AM CDT 8:01 PM CDT
Civil Twilight 6:26 AM CDT 8:27 PM CDT
Nautical Twilight 5:55 AM CDT 8:59 PM CDT
Astronomical Twilight 5:22 AM CDT 9:32 PM CDT
Moon 9:43 PM CDT (4/16) 7:43 AM CDT (4/16)
Length of Visible Light 14h 01m
Length of Day
13h 08m
Full, 98% of the Moon is Illuminated
Apr 16
Full
Apr 22
Last Quarter
Apr 29
New
May 6
First Quarter
May 14
Full

Hourly Weather History & Observations

Time (CDT) Temp. Windchill Dew Point Humidity Pressure Visibility Wind Dir Wind Speed Gust Speed Precip Events Conditions
12:15 AM 50.0 °F - 32.0 °F 50% 30.05 in 10.0 mi South 8.1 mph - N/A   Clear
12:35 AM 50.0 °F - 32.0 °F 50% 30.05 in 10.0 mi South 8.1 mph - N/A   Clear
12:55 AM 50.0 °F - 32.0 °F 50% 30.04 in 10.0 mi South 9.2 mph - N/A   Clear
1:15 AM 50.0 °F - 32.0 °F 50% 30.04 in 10.0 mi South 11.5 mph - N/A   Clear
1:35 AM 50.0 °F - 32.0 °F 50% 30.03 in 10.0 mi South 10.4 mph - N/A   Clear
1:55 AM 50.0 °F - 32.0 °F 50% 30.02 in 10.0 mi South 9.2 mph - N/A   Clear
2:15 AM 50.0 °F - 32.0 °F 50% 30.02 in 10.0 mi South 8.1 mph - N/A   Clear
2:35 AM 50.0 °F - 32.0 °F 50% 30.02 in 10.0 mi South 11.5 mph - N/A   Clear
2:55 AM 50.0 °F - 32.0 °F 50% 30.01 in 10.0 mi South 11.5 mph 16.1 mph N/A   Clear
3:15 AM 50.0 °F - 32.0 °F 50% 30.01 in 10.0 mi South 12.7 mph 18.4 mph N/A   Clear
3:35 AM 50.0 °F - 32.0 °F 50% 30.01 in 10.0 mi South 12.7 mph - N/A   Clear
3:55 AM 48.2 °F - 32.0 °F 54% 30.02 in 10.0 mi South 10.4 mph - N/A   Clear
4:15 AM 46.4 °F 41.9 °F 32.0 °F 57% 30.01 in 10.0 mi South 9.2 mph - N/A   Clear
4:35 AM 46.4 °F 40.7 °F 32.0 °F 57% 30.01 in 10.0 mi South 12.7 mph 17.3 mph N/A   Clear
4:55 AM 46.4 °F 41.1 °F 32.0 °F 57% 30.00 in 10.0 mi South 11.5 mph - N/A   Clear
5:15 AM 46.4 °F 40.7 °F 32.0 °F 57% 30.00 in 10.0 mi South 12.7 mph 17.3 mph N/A   Clear
5:35 AM 46.4 °F 41.5 °F 32.0 °F 57% 30.00 in 10.0 mi South 10.4 mph 17.3 mph N/A   Clear
5:55 AM 46.4 °F 41.5 °F 32.0 °F 57% 30.00 in 10.0 mi South 10.4 mph - N/A   Clear
6:15 AM 46.4 °F 41.5 °F 33.8 °F 62% 30.00 in 10.0 mi South 10.4 mph 16.1 mph N/A   Clear
6:35 AM 46.4 °F 41.5 °F 33.8 °F 62% 30.00 in 10.0 mi South 10.4 mph - N/A   Clear
6:55 AM 46.4 °F 41.9 °F 33.8 °F 62% 30.01 in 10.0 mi South 9.2 mph - N/A   Clear
7:15 AM 46.4 °F 41.9 °F 33.8 °F 62% 30.01 in 10.0 mi South 9.2 mph - N/A   Clear
7:35 AM 48.2 °F - 33.8 °F 58% 30.01 in 10.0 mi South 11.5 mph 17.3 mph N/A   Clear
7:55 AM 50.0 °F - 33.8 °F 54% 30.00 in 10.0 mi South 11.5 mph 17.3 mph N/A   Clear
8:15 AM 50.0 °F - 33.8 °F 54% 30.01 in 10.0 mi South 17.3 mph 24.2 mph N/A   Clear
8:35 AM 50.0 °F - 33.8 °F 54% 30.02 in 10.0 mi South 13.8 mph 24.2 mph N/A   Clear
8:55 AM 51.8 °F - 33.8 °F 50% 30.02 in 10.0 mi South 17.3 mph 25.3 mph N/A   Clear
9:15 AM 53.6 °F - 33.8 °F 47% 30.01 in 10.0 mi South 19.6 mph 29.9 mph N/A   Clear
9:35 AM 55.4 °F - 35.6 °F 47% 30.00 in 10.0 mi South 21.9 mph 29.9 mph N/A   Clear
9:55 AM 57.2 °F - 33.8 °F 41% 30.01 in 10.0 mi South 23.0 mph 33.4 mph N/A   Clear
10:15 AM 59.0 °F - 33.8 °F 39% 30.01 in 10.0 mi South 25.3 mph 34.5 mph N/A   Clear
10:35 AM 59.0 °F - 33.8 °F 39% 30.01 in 10.0 mi SSW 25.3 mph 34.5 mph N/A   Clear
10:55 AM 60.8 °F - 33.8 °F 36% 30.02 in 10.0 mi South 19.6 mph 33.4 mph N/A   Clear
11:15 AM 60.8 °F - 35.6 °F 39% 30.02 in 10.0 mi South 18.4 mph 27.6 mph N/A   Clear
11:35 AM 62.6 °F - 35.6 °F 37% 30.00 in 10.0 mi SSW 21.9 mph 31.1 mph N/A   Clear
11:55 AM 62.6 °F - 35.6 °F 37% 30.00 in 10.0 mi South 19.6 mph 32.2 mph N/A   Clear
12:15 PM 64.4 °F - 35.6 °F 34% 29.99 in 10.0 mi South 19.6 mph 32.2 mph N/A   Clear
12:35 PM 64.4 °F - 35.6 °F 34% 29.98 in 10.0 mi South 24.2 mph 28.8 mph N/A   Clear
1:15 PM 66.2 °F - 37.4 °F 35% 29.96 in 10.0 mi South 23.0 mph 31.1 mph N/A   Clear
1:35 PM 66.2 °F - 37.4 °F 35% 29.96 in 10.0 mi South 19.6 mph 29.9 mph N/A   Clear
1:55 PM 68.0 °F - 37.4 °F 33% 29.93 in 10.0 mi South 23.0 mph 32.2 mph N/A   Clear
2:15 PM 68.0 °F - 37.4 °F 33% 29.93 in 10.0 mi South 20.7 mph 29.9 mph N/A   Clear
2:35 PM 68.0 °F - 37.4 °F 33% 29.93 in 10.0 mi South 19.6 mph 27.6 mph N/A   Clear
2:55 PM 68.0 °F - 37.4 °F 33% 29.94 in 10.0 mi South 19.6 mph 27.6 mph N/A   Clear
3:15 PM 68.0 °F - 37.4 °F 33% 29.93 in 10.0 mi South 15.0 mph 27.6 mph N/A   Clear
3:35 PM 69.8 °F - 37.4 °F 31% 29.92 in 10.0 mi South 19.6 mph 27.6 mph N/A   Clear
3:55 PM 69.8 °F - 37.4 °F 31% 29.92 in 10.0 mi South 23.0 mph 27.6 mph N/A   Clear
4:15 PM 69.8 °F - 37.4 °F 31% 29.91 in 10.0 mi South 19.6 mph 26.5 mph N/A   Clear
4:35 PM 68.0 °F - 37.4 °F 33% 29.91 in 10.0 mi South 16.1 mph 24.2 mph N/A   Clear
4:55 PM 69.8 °F - 39.2 °F 33% 29.90 in 10.0 mi South 13.8 mph 26.5 mph N/A   Clear
5:15 PM 69.8 °F - 39.2 °F 33% 29.91 in 10.0 mi SSW 16.1 mph 23.0 mph N/A   Clear
5:35 PM 69.8 °F - 39.2 °F 33% 29.92 in 10.0 mi South 15.0 mph 23.0 mph N/A   Clear
5:55 PM 69.8 °F - 39.2 °F 33% 29.92 in 10.0 mi South 12.7 mph 24.2 mph N/A   Clear
6:15 PM 68.0 °F - 37.4 °F 33% 29.93 in 10.0 mi SSW 11.5 mph 19.6 mph N/A   Clear
6:35 PM 68.0 °F - 39.2 °F 35% 29.94 in 10.0 mi SSW 12.7 mph 17.3 mph N/A   Clear
6:55 PM 66.2 °F - 37.4 °F 35% 29.94 in 10.0 mi South 13.8 mph - N/A   Clear
7:15 PM 64.4 °F - 37.4 °F 37% 29.95 in 10.0 mi South 10.4 mph 17.3 mph N/A   Clear
7:35 PM 62.6 °F - 37.4 °F 39% 29.95 in 10.0 mi South 8.1 mph - N/A   Clear
7:55 PM 60.8 °F - 37.4 °F 42% 29.96 in 10.0 mi South 9.2 mph - N/A   Clear
8:15 PM 60.8 °F - 37.4 °F 42% 29.97 in 10.0 mi South 6.9 mph - N/A   Clear
8:35 PM 59.0 °F - 37.4 °F 45% 29.98 in 10.0 mi South 6.9 mph - N/A   Clear
8:55 PM 57.2 °F - 37.4 °F 48% 29.99 in 10.0 mi South 5.8 mph - N/A   Clear
9:15 PM 55.4 °F - 37.4 °F 51% 30.00 in 10.0 mi SSE 6.9 mph - N/A   Clear
9:35 PM 55.4 °F - 39.2 °F 54% 30.01 in 10.0 mi SSE 8.1 mph - N/A   Clear
9:55 PM 55.4 °F - 41.0 °F 58% 30.01 in 10.0 mi SSE 9.2 mph - N/A   Clear
10:15 PM 55.4 °F - 41.0 °F 58% 30.02 in 10.0 mi SSE 9.2 mph - N/A   Clear
10:35 PM 53.6 °F - 41.0 °F 62% 30.02 in 10.0 mi SSE 9.2 mph - N/A   Clear
10:55 PM 55.4 °F - 41.0 °F 58% 30.02 in 10.0 mi SSE 10.4 mph - N/A   Clear
11:15 PM 53.6 °F - 41.0 °F 62% 30.03 in 10.0 mi South 9.2 mph - N/A   Clear
11:35 PM 53.6 °F - 41.0 °F 62% 30.03 in 10.0 mi South 8.1 mph - N/A   Clear
11:55 PM 53.6 °F - 41.0 °F 62% 30.04 in 10.0 mi South 5.8 mph - N/A   Clear